QPF
0.11 0.10 0.06 0.04 0.04 0.05 0.05 0.04 0.03 0.03 0.03 0.03 0.02 0.01 0.01 0.01 0.01 0.01 0.01 0.01 0.01 0.01 0.01 0.01 0.01 0.01 0.01 0.02 0.02 0.02 0.02 0.02 0.02 0.02 0.01 0.03 0.04 0.04 0.05 0.03 0.03 0.02 0.02
0.09 0.10 0.07 0.04 0.03 0.04 0.05 0.04 0.03 0.03 0.03 0.04 0.03 0.01 0.01 0.01 0.01 0.01 0.00 0.01 0.01 0.01 0.01 0.01 0.01 0.01 0.01 0.01 0.01 0.01 0.01 0.01 0.01 0.01 0.01 0.02 0.04 0.04 0.05 0.04 0.03 0.02 0.03
0.09 0.09 0.10 0.08 0.05 0.04 0.05 0.06 0.05 0.04 0.04 0.04 0.02 0.01 0.01 0.01 0.01 0.01 0.00 0.00 0.00 0.01 0.01 0.01 0.01 0.01 0.01 0.00 0.00 0.00 0.00 0.01 0.01 0.01 0.01 0.01 0.02 0.03 0.04 0.04 0.04 0.04 0.04
0.09 0.10 0.09 0.08 0.07 0.06 0.06 0.07 0.07 0.05 0.05 0.04 0.02 0.02 0.01 0.01 0.01 0.00 0.00 0.00 0.01 0.01 0.02 0.01 0.01 0.01 0.01 0.00 0.00 0.00 0.00 0.01 0.01 0.01 0.01 0.01 0.02 0.02 0.04 0.04 0.04 0.04 0.04
0.08 0.07 0.07 0.08 0.09 0.10 0.08 0.07 0.09 0.07 0.05 0.05 0.03 0.02 0.03 0.03 0.01 0.01 0.01 0.01 0.00 0.01 0.01 0.01 0.01 0.01 0.01 0.00 0.00 0.00 0.01 0.01 0.01 0.01 0.01 0.02 0.02 0.02 0.02 0.02 0.02 0.03 0.03
0.06 0.07 0.07 0.08 0.08 0.08 0.07 0.06 0.08 0.08 0.07 0.08 0.06 0.05 0.04 0.02 0.02 0.01 0.01 0.00 0.01 0.01 0.01 0.01 0.02 0.01 0.01 0.01 0.00 0.00 0.01 0.01 0.01 0.01 0.02 0.02 0.02 0.02 0.02 0.02 0.02 0.03 0.03
0.04 0.05 0.05 0.06 0.07 0.06 0.07 0.07 0.08 0.09 0.09 0.09 0.09 0.08 0.05 0.04 0.04 0.03 0.02 0.01 0.02 0.02 0.02 0.02 0.02 0.01 0.01 0.01 0.01 0.01 0.00 0.01 0.01 0.02 0.02 0.01 0.01 0.02 0.02 0.02 0.02 0.02 0.02
0.06 0.05 0.05 0.06 0.08 0.09 0.09 0.08 0.09 0.11 0.11 0.11 0.11 0.09 0.07 0.07 0.07 0.04 0.03 0.03 0.03 0.02 0.02 0.01 0.01 0.01 0.01 0.01 0.01 0.01 0.01 0.01 0.02 0.02 0.02 0.01 0.00 0.01 0.02 0.02 0.02 0.03 0.03
0.08 0.05 0.04 0.05 0.08 0.12 0.12 0.10 0.09 0.10 0.10 0.11 0.11 0.10 0.09 0.08 0.08 0.06 0.05 0.04 0.03 0.02 0.02 0.02 0.01 0.01 0.01 0.01 0.01 0.01 0.01 0.02 0.02 0.03 0.02 0.01 0.00 0.01 0.01 0.02 0.03 0.04 0.04
0.05 0.05 0.05 0.04 0.04 0.06 0.11 0.14 0.16 0.16 0.12 0.11 0.12 0.12 0.08 0.06 0.05 0.06 0.05 0.04 0.03 0.03 0.02 0.02 0.01 0.01 0.01 0.02 0.01 0.01 0.02 0.02 0.02 0.02 0.01 0.01 0.01 0.01 0.01 0.01 0.02 0.03 0.03
0.02 0.03 0.04 0.05 0.05 0.05 0.07 0.11 0.15 0.17 0.15 0.12 0.10 0.09 0.08 0.06 0.05 0.05 0.05 0.03 0.02 0.02 0.02 0.02 0.02 0.02 0.02 0.02 0.02 0.02 0.02 0.02 0.01 0.01 0.01 0.01 0.00 0.00 0.00 0.00 0.01 0.02 0.02
0.02 0.03 0.04 0.05 0.06 0.07 0.08 0.09 0.11 0.15 0.13 0.10 0.09 0.07 0.06 0.05 0.04 0.04 0.04 0.04 0.03 0.02 0.02 0.02 0.02 0.02 0.03 0.03 0.03 0.03 0.02 0.02 0.02 0.02 0.02 0.01 0.01 0.00 0.01 0.01 0.01 0.02 0.02
0.03 0.04 0.05 0.06 0.06 0.08 0.10 0.09 0.10 0.12 0.14 0.10 0.08 0.07 0.06 0.05 0.05 0.04 0.03 0.04 0.05 0.05 0.05 0.05 0.04 0.03 0.02 0.03 0.02 0.02 0.02 0.02 0.01 0.01 0.01 0.02 0.02 0.01 0.01 0.01 0.02 0.03 0.03
0.03 0.05 0.07 0.07 0.07 0.07 0.08 0.08 0.08 0.08 0.12 0.11 0.08 0.06 0.06 0.06 0.05 0.04 0.03 0.02 0.02 0.02 0.03 0.04 0.05 0.05 0.04 0.04 0.03 0.02 0.03 0.02 0.02 0.02 0.02 0.02 0.02 0.02 0.01 0.02 0.02 0.03 0.03
0.04 0.04 0.06 0.07 0.06 0.06 0.07 0.08 0.08 0.07 0.09 0.11 0.09 0.09 0.07 0.05 0.05 0.04 0.03 0.02 0.01 0.01 0.02 0.02 0.02 0.03 0.03 0.04 0.04 0.04 0.05 0.05 0.05 0.04 0.03 0.02 0.03 0.03 0.03 0.03 0.03 0.03 0.03
0.04 0.04 0.04 0.05 0.05 0.06 0.06 0.08 0.08 0.08 0.09 0.10 0.10 0.07 0.08 0.06 0.05 0.04 0.03 0.03 0.02 0.02 0.01 0.01 0.02 0.03 0.03 0.03 0.03 0.04 0.07 0.08 0.07 0.05 0.03 0.02 0.03 0.03 0.04 0.05 0.05 0.04 0.03
0.02 0.02 0.03 0.04 0.05 0.06 0.06 0.05 0.05 0.05 0.07 0.08 0.09 0.07 0.06 0.05 0.05 0.04 0.03 0.02 0.02 0.02 0.01 0.01 0.01 0.02 0.02 0.02 0.02 0.03 0.06 0.08 0.06 0.03 0.03 0.02 0.02 0.03 0.04 0.05 0.05 0.04 0.04
0.02 0.02 0.02 0.03 0.04 0.04 0.05 0.05 0.05 0.04 0.04 0.04 0.05 0.05 0.05 0.05 0.04 0.03 0.03 0.02 0.02 0.02 0.01 0.01 0.01 0.01 0.01 0.01 0.02 0.02 0.02 0.05 0.05 0.02 0.02 0.03 0.04 0.04 0.04 0.04 0.05 0.04 0.04
0.03 0.03 0.03 0.03 0.04 0.05 0.05 0.06 0.06 0.05 0.05 0.04 0.03 0.03 0.03 0.03 0.04 0.03 0.02 0.01 0.01 0.01 0.01 0.01 0.01 0.01 0.01 0.01 0.01 0.02 0.02 0.02 0.02 0.02 0.02 0.02 0.03 0.05 0.05 0.05 0.05 0.04 0.04
0.07 0.09 0.08 0.06 0.05 0.08 0.08 0.06 0.06 0.07 0.06 0.04 0.04 0.03 0.03 0.03 0.02 0.02 0.02 0.01 0.00 0.01 0.01 0.01 0.01 0.01 0.01 0.02 0.01 0.02 0.03 0.02 0.01 0.01 0.02 0.02 0.02 0.03 0.04 0.05 0.05 0.05 0.05
0.08 0.11 0.12 0.10 0.07 0.08 0.09 0.08 0.05 0.05 0.07 0.06 0.05 0.05 0.04 0.03 0.02 0.02 0.02 0.02 0.01 0.01 0.01 0.02 0.02 0.02 0.02 0.02 0.02 0.02 0.02 0.02 0.02 0.01 0.01 0.01 0.02 0.02 0.03 0.04 0.06 0.06 0.05
0.05 0.06 0.07 0.08 0.07 0.07 0.07 0.08 0.07 0.05 0.05 0.05 0.06 0.07 0.07 0.05 0.03 0.03 0.03 0.03 0.02 0.02 0.02 0.03 0.03 0.03 0.03 0.03 0.03 0.03 0.03 0.03 0.03 0.02 0.02 0.01 0.01 0.02 0.02 0.03 0.04 0.06 0.06
0.05 0.05 0.05 0.05 0.06 0.06 0.06 0.06 0.07 0.06 0.05 0.05 0.05 0.06 0.06 0.06 0.07 0.07 0.06 0.06 0.06 0.05 0.05 0.05 0.07 0.06 0.05 0.05 0.05 0.04 0.04 0.02 0.03 0.03 0.03 0.02 0.02 0.01 0.01 0.02 0.03 0.03 0.04
0.06 0.05 0.04 0.04 0.05 0.06 0.04 0.05 0.06 0.06 0.05 0.05 0.06 0.07 0.09 0.10 0.08 0.08 0.09 0.08 0.07 0.06 0.06 0.06 0.07 0.07 0.05 0.05 0.04 0.04 0.03 0.03 0.02 0.02 0.02 0.02 0.02 0.01 0.01 0.01 0.02 0.02 0.03
0.03 0.03 0.04 0.04 0.05 0.05 0.05 0.06 0.06 0.07 0.08 0.06 0.07 0.07 0.08 0.07 0.06 0.07 0.07 0.07 0.06 0.04 0.04 0.05 0.06 0.07 0.05 0.05 0.04 0.04 0.03 0.03 0.02 0.02 0.02 0.02 0.02 0.01 0.02 0.02 0.02 0.02 0.02
0.02 0.02 0.02 0.03 0.04 0.05 0.07 0.08 0.07 0.08 0.08 0.07 0.06 0.06 0.07 0.06 0.06 0.05 0.04 0.06 0.07 0.06 0.05 0.06 0.06 0.07 0.07 0.06 0.06 0.06 0.05 0.03 0.02 0.02 0.03 0.03 0.02 0.02 0.02 0.03 0.03 0.03 0.03
MSLP
1010.84 1011.03 1011.19 1011.32 1011.43 1011.52 1011.61 1011.70 1011.80 1011.92 1012.07 1012.25 1012.43 1012.62 1012.80 1012.97 1013.11 1013.22 1013.31 1013.38 1013.42 1013.43 1013.42 1013.37 1013.28 1013.14 1012.95 1012.72 1012.44 1012.15 1011.84 1011.55 1011.27 1011.03 1010.81 1010.62 1010.45 1010.28 1010.11 1009.93 1009.73 1009.53 1009.35
1010.54 1010.69 1010.82 1010.92 1011.02 1011.11 1011.21 1011.34 1011.48 1011.66 1011.86 1012.08 1012.31 1012.54 1012.75 1012.93 1013.08 1013.19 1013.27 1013.31 1013.32 1013.29 1013.23 1013.13 1012.98 1012.80 1012.57 1012.32 1012.05 1011.77 1011.51 1011.27 1011.07 1010.90 1010.77 1010.65 1010.55 1010.43 1010.30 1010.14 1009.97 1009.77 1009.59
1010.10 1010.23 1010.33 1010.43 1010.53 1010.65 1010.80 1010.98 1011.19 1011.43 1011.69 1011.96 1012.23 1012.49 1012.71 1012.90 1013.05 1013.15 1013.22 1013.24 1013.22 1013.16 1013.07 1012.94 1012.77 1012.56 1012.33 1012.07 1011.81 1011.56 1011.33 1011.14 1010.98 1010.86 1010.77 1010.70 1010.64 1010.56 1010.46 1010.34 1010.19 1010.03 1009.87
1009.59 1009.69 1009.79 1009.90 1010.03 1010.19 1010.40 1010.64 1010.92 1011.23 1011.55 1011.87 1012.18 1012.45 1012.69 1012.87 1013.01 1013.10 1013.14 1013.14 1013.11 1013.04 1012.94 1012.80 1012.63 1012.44 1012.22 1011.98 1011.74 1011.52 1011.31 1011.14 1011.00 1010.90 1010.83 1010.78 1010.74 1010.68 1010.62 1010.53 1010.42 1010.30 1010.19
1009.08 1009.16 1009.25 1009.37 1009.54 1009.75 1010.02 1010.33 1010.68 1011.05 1011.43 1011.80 1012.13 1012.42 1012.66 1012.83 1012.95 1013.02 1013.05 1013.03 1012.99 1012.92 1012.82 1012.70 1012.56 1012.39 1012.21 1012.00 1011.80 1011.60 1011.42 1011.26 1011.13 1011.03 1010.96 1010.90 1010.86 1010.82 1010.78 1010.73 1010.67 1010.62 1010.57
1008.66 1008.70 1008.78 1008.91 1009.10 1009.35 1009.66 1010.03 1010.43 1010.86 1011.29 1011.69 1012.05 1012.35 1012.59 1012.76 1012.86 1012.92 1012.93 1012.90 1012.86 1012.80 1012.72 1012.63 1012.52 1012.40 1012.26 1012.10 1011.94 1011.77 1011.61 1011.46 1011.33 1011.22 1011.14 1011.08 1011.04 1011.01 1010.99 1010.98 1010.97 1010.97 1010.99
1008.38 1008.38 1008.43 1008.54 1008.73 1008.99 1009.32 1009.72 1010.16 1010.62 1011.08 1011.52 1011.90 1012.22 1012.46 1012.63 1012.73 1012.78 1012.79 1012.77 1012.73 1012.68 1012.63 1012.58 1012.51 1012.44 1012.35 1012.24 1012.12 1011.98 1011.85 1011.71 1011.59 1011.48 1011.39 1011.33 1011.29 1011.27 1011.27 1011.29 1011.32 1011.37 1011.45
1008.28 1008.22 1008.22 1008.28 1008.43 1008.66 1008.98 1009.37 1009.82 1010.29 1010.77 1011.22 1011.63 1011.97 1012.23 1012.42 1012.55 1012.61 1012.64 1012.64 1012.62 1012.60 1012.58 1012.56 1012.54 1012.50 1012.46 1012.40 1012.32 1012.22 1012.11 1012.00 1011.89 1011.79 1011.71 1011.65 1011.61 1011.60 1011.62 1011.65 1011.72 1011.80 1011.90
1008.35 1008.22 1008.14 1008.13 1008.21 1008.38 1008.64 1008.99 1009.40 1009.86 1010.33 1010.79 1011.22 1011.59 1011.90 1012.13 1012.30 1012.41 1012.48 1012.52 1012.54 1012.56 1012.57 1012.58 1012.60 1012.60 1012.60 1012.57 1012.53 1012.47 1012.40 1012.31 1012.22 1012.14 1012.07 1012.02 1011.99 1011.98 1012.00 1012.05 1012.12 1012.20 1012.31
1008.58 1008.37 1008.20 1008.09 1008.06 1008.14 1008.31 1008.57 1008.92 1009.33 1009.78 1010.24 1010.69 1011.10 1011.46 1011.76 1012.00 1012.18 1012.32 1012.42 1012.49 1012.55 1012.61 1012.66 1012.70 1012.73 1012.75 1012.76 1012.75 1012.72 1012.67 1012.62 1012.55 1012.49 1012.44 1012.39 1012.37 1012.37 1012.38 1012.42 1012.47 1012.54 1012.62
1008.93 1008.63 1008.36 1008.14 1008.00 1007.95 1008.00 1008.16 1008.42 1008.76 1009.17 1009.61 1010.07 1010.53 1010.95 1011.32 1011.65 1011.92 1012.14 1012.32 1012.46 1012.58 1012.67 1012.75 1012.82 1012.87 1012.91 1012.94 1012.95 1012.94 1012.92 1012.89 1012.85 1012.80 1012.76 1012.73 1012.70 1012.69 1012.69 1012.70 1012.72 1012.74 1012.78
1009.35 1008.97 1008.60 1008.27 1008.01 1007.83 1007.75 1007.79 1007.94 1008.20 1008.55 1008.97 1009.43 1009.91 1010.39 1010.84 1011.26 1011.62 1011.94 1012.20 1012.42 1012.59 1012.73 1012.84 1012.93 1013.00 1013.04 1013.08 1013.09 1013.10 1013.09 1013.07 1013.05 1013.02 1012.98 1012.95 1012.92 1012.89 1012.86 1012.83 1012.81 1012.79 1012.78
1009.80 1009.36 1008.92 1008.49 1008.11 1007.81 1007.61 1007.53 1007.57 1007.73 1008.01 1008.38 1008.83 1009.33 1009.84 1010.35 1010.84 1011.29 1011.69 1012.03 1012.31 1012.54 1012.73 1012.86 1012.97 1013.04 1013.09 1013.12 1013.13 1013.13 1013.13 1013.11 1013.09 1013.07 1013.03 1013.00 1012.95 1012.90 1012.85 1012.79 1012.73 1012.67 1012.61
1010.26 1009.78 1009.27 1008.77 1008.30 1007.90 1007.59 1007.40 1007.34 1007.41 1007.61 1007.92 1008.33 1008.81 1009.34 1009.88 1010.42 1010.92 1011.38 1011.78 1012.11 1012.39 1012.60 1012.76 1012.87 1012.94 1012.98 1013.01 1013.01 1013.01 1012.99 1012.97 1012.95 1012.92 1012.88 1012.84 1012.78 1012.72 1012.65 1012.57 1012.48 1012.40 1012.31
1010.70 1010.18 1009.64 1009.08 1008.56 1008.09 1007.70 1007.42 1007.27 1007.25 1007.37 1007.61 1007.97 1008.40 1008.91 1009.44 1009.98 1010.50 1010.99 1011.42 1011.78 1012.08 1012.31 1012.48 1012.59 1012.66 1012.70 1012.71 1012.70 1012.68 1012.66 1012.63 1012.60 1012.56 1012.52 1012.47 1012.42 1012.35 1012.28 1012.20 1012.11 1012.02 1011.94
1011.07 1010.54 1009.98 1009.40 1008.84 1008.33 1007.90 1007.56 1007.34 1007.24 1007.28 1007.44 1007.72 1008.09 1008.54 1009.03 1009.54 1010.04 1010.52 1010.94 1011.31 1011.61 1011.85 1012.02 1012.13 1012.19 1012.22 1012.22 1012.20 1012.17 1012.13 1012.10 1012.06 1012.02 1011.99 1011.95 1011.90 1011.85 1011.80 1011.74 1011.67 1011.61 1011.55
1011.34 1010.81 1010.24 1009.66 1009.10 1008.57 1008.11 1007.73 1007.46 1007.30 1007.26 1007.34 1007.54 1007.83 1008.20 1008.62 1009.07 1009.52 1009.96 1010.37 1010.72 1011.01 1011.24 1011.40 1011.51 1011.58 1011.60 1011.59 1011.56 1011.53 1011.49 1011.46 1011.42 1011.39 1011.37 1011.35 1011.32 1011.30 1011.28 1011.26 1011.23 1011.21 1011.18
1011.50 1010.96 1010.39 1009.81 1009.24 1008.71 1008.24 1007.84 1007.53 1007.32 1007.21 1007.22 1007.33 1007.53 1007.82 1008.16 1008.54 1008.94 1009.33 1009.70 1010.03 1010.31 1010.54 1010.70 1010.82 1010.88 1010.91 1010.91 1010.89 1010.86 1010.83 1010.80 1010.78 1010.77 1010.76 1010.77 1010.78 1010.79 1010.81 1010.83 1010.85 1010.86 1010.88
1011.52 1010.96 1010.38 1009.79 1009.22 1008.68 1008.20 1007.77 1007.43 1007.17 1007.01 1006.95 1006.99 1007.12 1007.34 1007.61 1007.94 1008.29 1008.64 1008.99 1009.31 1009.59 1009.82 1010.00 1010.13 1010.22 1010.26 1010.28 1010.28 1010.26 1010.25 1010.24 1010.23 1010.24 1010.26 1010.29 1010.34 1010.39 1010.44 1010.50 1010.55 1010.60 1010.63
1011.42 1010.82 1010.21 1009.60 1009.00 1008.44 1007.92 1007.46 1007.08 1006.78 1006.58 1006.46 1006.45 1006.54 1006.70 1006.94 1007.23 1007.56 1007.92 1008.27 1008.60 1008.90 1009.17 1009.38 1009.55 1009.67 1009.75 1009.80 1009.82 1009.84 1009.85 1009.86 1009.87 1009.90 1009.94 1010.00 1010.06 1010.14 1010.22 1010.29 1010.36 1010.42 1010.46
1011.24 1010.59 1009.91 1009.24 1008.59 1007.98 1007.41 1006.90 1006.47 1006.13 1005.88 1005.73 1005.69 1005.75 1005.90 1006.14 1006.45 1006.80 1007.19 1007.58 1007.97 1008.33 1008.65 1008.92 1009.14 1009.32 1009.45 1009.54 1009.60 1009.64 1009.68 1009.71 1009.74 1009.79 1009.85 1009.91 1009.99 1010.06 1010.14 1010.21 1010.27 1010.32 1010.34
1011.05 1010.31 1009.56 1008.80 1008.07 1007.37 1006.72 1006.14 1005.65 1005.25 1004.97 1004.79 1004.75 1004.82 1005.00 1005.28 1005.64 1006.06 1006.52 1007.00 1007.46 1007.91 1008.31 1008.67 1008.96 1009.20 1009.39 1009.53 1009.63 1009.70 1009.76 1009.81 1009.86 1009.91 1009.97 1010.03 1010.09 1010.16 1010.21 1010.26 1010.29 1010.29 1010.27
1010.92 1010.10 1009.24 1008.38 1007.54 1006.73 1005.98 1005.31 1004.74 1004.30 1003.98 1003.79 1003.76 1003.86 1004.10 1004.45 1004.90 1005.42 1005.99 1006.58 1007.16 1007.70 1008.21 1008.65 1009.02 1009.33 1009.57 1009.76 1009.89 1009.99 1010.07 1010.13 1010.18 1010.22 1010.27 1010.31 1010.35 1010.39 1010.41 1010.41 1010.39 1010.35 1010.28
1010.92 1010.02 1009.07 1008.10 1007.14 1006.22 1005.36 1004.60 1003.96 1003.46 1003.11 1002.93 1002.92 1003.08 1003.39 1003.83 1004.38 1005.01 1005.70 1006.40 1007.09 1007.74 1008.34 1008.86 1009.30 1009.67 1009.96 1010.18 1010.34 1010.46 1010.54 1010.60 1010.64 1010.68 1010.70 1010.72 1010.73 1010.72 1010.70 1010.66 1010.59 1010.50 1010.39
1011.11 1010.14 1009.11 1008.05 1007.00 1005.98 1005.04 1004.20 1003.50 1002.95 1002.59 1002.42 1002.44 1002.65 1003.03 1003.56 1004.21 1004.94 1005.73 1006.53 1007.30 1008.04 1008.70 1009.29 1009.78 1010.18 1010.50 1010.73 1010.90 1011.02 1011.10 1011.16 1011.19 1011.20 1011.21 1011.19 1011.17 1011.12 1011.06 1010.98 1010.87 1010.74 1010.60
1011.47 1010.48 1009.42 1008.31 1007.20 1006.13 1005.13 1004.25 1003.52 1002.96 1002.60 1002.44 1002.50 1002.76 1003.20 1003.79 1004.51 1005.31 1006.15 1007.01 1007.83 1008.61 1009.30 1009.90 1010.41 1010.81 1011.13 1011.36 1011.53 1011.64 1011.70 1011.74 1011.75 1011.75 1011.73 1011.69 1011.63 1011.56 1011.47 1011.35 1011.22 1011.06 1010.90
Thickness
5722 5721 5720 5718 5718 5717 5715 5715 5714 5714 5713 5713 5712 5710 5709 5708 5707 5706 5705 5704 5703 5703 5703 5702 5701 5700 5698 5697 5695 5693 5691 5688 5683 5684 5686 5687 5687 5686 5685 5685 5684 5684 5684
5719 5717 5716 5715 5714 5713 5713 5713 5712 5711 5711 5711 5710 5708 5707 5706 5705 5704 5702 5702 5700 5700 5700 5699 5698 5697 5695 5694 5693 5691 5690 5688 5684 5681 5682 5683 5683 5683 5682 5681 5681 5681 5681
5714 5713 5711 5711 5710 5710 5710 5710 5710 5709 5708 5707 5706 5705 5705 5704 5702 5702 5701 5699 5699 5698 5698 5696 5695 5694 5692 5691 5690 5689 5687 5687 5684 5680 5679 5679 5678 5679 5678 5678 5678 5678 5678
5709 5708 5706 5706 5706 5706 5706 5707 5707 5706 5704 5703 5702 5702 5701 5700 5700 5699 5698 5697 5696 5696 5696 5695 5694 5693 5691 5690 5688 5686 5685 5683 5680 5677 5675 5674 5674 5675 5673 5672 5672 5673 5674
5703 5702 5702 5702 5703 5703 5702 5702 5702 5701 5701 5699 5698 5697 5697 5696 5696 5695 5694 5694 5693 5692 5692 5692 5692 5692 5691 5689 5688 5685 5683 5680 5677 5674 5672 5670 5669 5669 5669 5669 5668 5668 5669
5696 5697 5697 5697 5697 5697 5697 5697 5697 5696 5695 5694 5693 5692 5692 5693 5693 5693 5692 5691 5690 5689 5688 5689 5689 5689 5689 5688 5687 5685 5683 5679 5675 5672 5670 5668 5668 5667 5667 5666 5664 5662 5662
5690 5691 5691 5692 5692 5692 5693 5692 5691 5691 5690 5689 5688 5688 5687 5688 5689 5689 5689 5688 5687 5687 5686 5685 5686 5687 5686 5685 5683 5682 5681 5679 5678 5674 5670 5668 5667 5667 5665 5663 5661 5660 5660
5684 5685 5686 5686 5686 5687 5687 5687 5687 5686 5685 5685 5683 5683 5683 5684 5684 5684 5684 5684 5684 5684 5684 5683 5682 5682 5683 5681 5679 5678 5676 5676 5675 5673 5672 5671 5670 5668 5666 5663 5661 5659 5659
5677 5678 5679 5680 5680 5680 5681 5681 5682 5681 5681 5680 5679 5678 5678 5679 5680 5680 5679 5678 5678 5679 5680 5681 5680 5679 5679 5677 5675 5673 5672 5672 5673 5672 5671 5670 5668 5666 5664 5660 5656 5653 5652
5671 5672 5674 5674 5675 5675 5675 5676 5677 5677 5676 5675 5674 5674 5674 5675 5676 5676 5675 5674 5673 5674 5675 5676 5676 5676 5675 5673 5671 5669 5667 5667 5668 5667 5665 5665 5664 5663 5661 5658 5655 5650 5648
5667 5667 5668 5669 5670 5670 5670 5671 5671 5671 5670 5669 5669 5669 5670 5671 5672 5671 5670 5669 5669 5669 5669 5670 5671 5671 5670 5669 5667 5666 5666 5665 5663 5661 5660 5659 5659 5658 5658 5656 5654 5651 5648
5661 5661 5662 5663 5665 5666 5665 5665 5666 5665 5664 5663 5662 5663 5665 5667 5667 5667 5666 5666 5666 5665 5665 5665 5666 5666 5665 5664 5663 5663 5662 5660 5658 5656 5655 5654 5654 5655 5655 5655 5653 5652 5650
5653 5654 5656 5658 5659 5660 5660 5660 5659 5659 5658 5658 5658 5658 5659 5660 5661 5661 5661 5660 5660 5660 5660 5661 5660 5660 5659 5659 5659 5658 5656 5655 5653 5651 5651 5652 5653 5653 5653 5652 5651 5649 5647
5646 5647 5649 5650 5652 5654 5655 5655 5654 5654 5653 5654 5653 5652 5653 5654 5655 5655 5654 5654 5653 5652 5653 5653 5654 5653 5653 5653 5653 5652 5651 5650 5650 5649 5649 5650 5650 5649 5648 5647 5645 5644 5642
5638 5640 5641 5643 5644 5645 5646 5647 5649 5650 5651 5650 5649 5649 5648 5649 5651 5651 5650 5649 5649 5648 5646 5646 5646 5645 5646 5646 5646 5646 5646 5645 5644 5644 5644 5645 5645 5645 5644 5643 5641 5639 5637
5630 5632 5634 5635 5636 5637 5638 5640 5642 5644 5646 5646 5647 5646 5646 5647 5647 5646 5645 5645 5644 5642 5640 5640 5640 5640 5640 5641 5641 5641 5641 5640 5640 5641 5640 5640 5640 5639 5639 5638 5637 5635 5634
5623 5624 5626 5628 5629 5630 5631 5632 5633 5636 5638 5639 5639 5640 5640 5640 5640 5639 5638 5637 5636 5635 5634 5635 5635 5636 5636 5636 5636 5636 5636 5636 5636 5636 5635 5635 5635 5634 5633 5632 5631 5630 5630
5617 5619 5620 5621 5622 5623 5624 5625 5627 5628 5629 5630 5632 5633 5633 5633 5633 5632 5631 5629 5628 5628 5630 5630 5631 5631 5631 5631 5631 5631 5631 5631 5630 5630 5630 5630 5630 5629 5627 5626 5626 5626 5625
5610 5612 5613 5615 5616 5617 5618 5619 5620 5622 5623 5624 5626 5626 5626 5625 5625 5624 5623 5624 5625 5625 5626 5626 5626 5626 5626 5627 5627 5626 5626 5625 5625 5625 5625 5625 5624 5623 5622 5622 5621 5621 5620
5603 5605 5607 5608 5609 5610 5611 5612 5614 5615 5617 5618 5619 5619 5618 5617 5617 5617 5617 5619 5621 5621 5622 5622 5622 5622 5622 5622 5621 5621 5620 5619 5619 5618 5618 5618 5618 5618 5617 5617 5616 5616 5615
5595 5596 5599 5600 5602 5603 5605 5605 5607 5609 5610 5611 5613 5615 5614 5614 5615 5614 5614 5615 5616 5617 5617 5617 5617 5617 5617 5617 5616 5615 5614 5613 5612 5612 5612 5612 5612 5612 5612 5612 5612 5611 5610
5586 5588 5590 5592 5594 5596 5597 5599 5600 5602 5604 5605 5607 5608 5608 5609 5609 5609 5609 5610 5610 5611 5611 5611 5610 5611 5611 5611 5610 5609 5607 5606 5606 5606 5606 5606 5606 5606 5606 5606 5605 5605 5604
5578 5580 5581 5583 5586 5588 5590 5592 5593 5595 5597 5599 5601 5602 5601 5602 5602 5603 5603 5604 5604 5604 5605 5605 5605 5604 5605 5605 5604 5603 5601 5600 5601 5601 5600 5600 5600 5600 5600 5599 5599 5598 5597
5570 5572 5574 5576 5578 5580 5583 5585 5587 5589 5592 5593 5595 5596 5596 5595 5596 5597 5597 5596 5597 5597 5598 5598 5599 5598 5598 5597 5597 5596 5596 5595 5596 5596 5595 5594 5594 5594 5594 5593 5593 5592 5592
5563 5565 5567 5569 5572 5574 5576 5579 5581 5583 5585 5587 5589 5590 5591 5590 5590 5590 5590 5590 5590 5590 5590 5591 5591 5591 5591 5591 5589 5589 5589 5589 5589 5590 5589 5589 5588 5588 5587 5587 5586 5586 5585
5555 5557 5559 5562 5565 5567 5570 5572 5574 5577 5579 5581 5582 5583 5584 5584 5584 5584 5583 5583 5583 5583 5583 5584 5584 5584 5584 5583 5583 5583 5582 5582 5583 5582 5582 5582 5581 5581 5580 5579 5579 5579 5579